{"data":{"norad_id":56530,"epoch":"2026-09-19T22:54:29.392704Z","epoch_age_seconds":161904,"freshness":"FRESH","line1":"1 56530U 23065AD  26262.95450686 -.00000168  00000+0  34176-5 0  9997","line2":"2 56530  43.0023 169.8861 0001119 260.1743  99.8982 15.27578290186609","mean_motion":15.2757829,"eccentricity":0.0001119,"inclination_deg":43.0023,"raan_deg":169.8861,"arg_perigee_deg":260.1743,"mean_anomaly_deg":99.8982,"bstar":3.4176e-6,"rev_number":18660,"period_min":94.266854237631,"perigee_km":482.28644910248,"apogee_km":483.82198369672,"semimajor_km":6861.1912163996,"source":"CELESTRAK","updated_at":"2026-09-21T09:00:33.474503Z"}}